Time,TemperatureF,DewpointF,PressureIn,WindDirection,WindDirectionDegrees,WindSpeedMPH,WindSpeedGustMPH,Humidity,HourlyPrecipIn,Conditions,Clouds,dailyrainin,SolarRadiationWatts/m^2,SoftwareType,DateUTC
2013-02-18 00:02:00,24.0,6.0,-100.00,NW,322,7.0,21.0,45,0.00,,,0.00,0.000000,,2013-02-18 05:02:00,
2013-02-18 00:10:00,23.0,2.0,-100.00,WNW,291,9.0,17.0,40,0.00,,,0.00,0.000000,,2013-02-18 05:10:00,
2013-02-18 00:32:00,23.0,2.0,-100.00,WNW,291,9.0,17.0,40,0.00,,,0.00,0.000000,,2013-02-18 05:32:00,
2013-02-18 00:42:00,23.0,2.0,-100.00,WNW,291,9.0,17.0,40,0.00,,,0.00,0.000000,,2013-02-18 05:42:00,
2013-02-18 00:52:00,23.0,2.0,-100.00,WNW,291,9.0,17.0,40,0.00,,,0.00,0.000000,,2013-02-18 05:52:00,
2013-02-18 01:02:00,23.0,2.0,-100.00,WNW,291,9.0,17.0,40,0.00,,,0.00,0.000000,,2013-02-18 06:02:00,
2013-02-18 01:10:00,22.0,1.0,-100.00,WNW,285,4.0,8.0,40,0.00,,,0.00,0.000000,,2013-02-18 06:10:00,
2013-02-18 01:42:00,22.0,1.0,-100.00,WNW,285,4.0,8.0,40,0.00,,,0.00,0.000000,,2013-02-18 06:42:00,
2013-02-18 01:52:00,22.0,1.0,-100.00,WNW,285,4.0,8.0,40,0.00,,,0.00,0.000000,,2013-02-18 06:52:00,
2013-02-18 02:02:00,22.0,1.0,-100.00,WNW,285,4.0,8.0,40,0.00,,,0.00,0.000000,,2013-02-18 07:02:00,
2013-02-18 02:10:00,24.0,5.0,-100.00,West,270,2.0,10.0,44,0.00,,,0.00,0.000000,,2013-02-18 07:10:00,
2013-02-18 02:42:00,24.0,5.0,-100.00,West,270,2.0,10.0,44,0.00,,,0.00,0.000000,,2013-02-18 07:42:00,
2013-02-18 02:52:00,24.0,5.0,-100.00,West,270,2.0,10.0,44,0.00,,,0.00,0.000000,,2013-02-18 07:52:00,
2013-02-18 03:02:00,24.0,5.0,-100.00,West,270,2.0,10.0,44,0.00,,,0.00,0.000000,,2013-02-18 08:02:00,
2013-02-18 03:10:00,23.0,3.0,-100.00,NW,306,5.0,10.0,42,0.00,,,0.00,0.000000,,2013-02-18 08:10:00,
2013-02-18 03:33:00,23.0,3.0,-100.00,NW,306,5.0,10.0,42,0.00,,,0.00,0.000000,,2013-02-18 08:33:00,
2013-02-18 03:42:00,23.0,3.0,-100.00,NW,306,5.0,10.0,42,0.00,,,0.00,0.000000,,2013-02-18 08:42:00,
2013-02-18 03:52:00,23.0,3.0,-100.00,NW,306,5.0,10.0,42,0.00,,,0.00,0.000000,,2013-02-18 08:52:00,
2013-02-18 04:03:00,23.0,3.0,-100.00,NW,306,5.0,10.0,42,0.00,,,0.00,0.000000,,2013-02-18 09:03:00,
2013-02-18 04:10:00,21.0,4.0,-100.00,NNW,347,3.0,6.0,47,0.00,,,0.00,0.000000,,2013-02-18 09:10:00,
2013-02-18 04:32:00,21.0,4.0,-100.00,NNW,347,3.0,6.0,47,0.00,,,0.00,0.000000,,2013-02-18 09:32:00,
2013-02-18 04:42:00,21.0,4.0,-100.00,NNW,347,3.0,6.0,47,0.00,,,0.00,0.000000,,2013-02-18 09:42:00,
2013-02-18 04:52:00,21.0,4.0,-100.00,NNW,347,3.0,6.0,47,0.00,,,0.00,0.000000,,2013-02-18 09:52:00,
2013-02-18 05:01:00,21.0,4.0,-100.00,NNW,347,3.0,6.0,47,0.00,,,0.00,0.000000,,2013-02-18 10:01:00,
2013-02-18 05:10:00,18.0,5.0,-100.00,NNW,337,2.0,6.0,55,0.00,,,0.00,0.000000,,2013-02-18 10:10:00,
2013-02-18 05:42:00,18.0,5.0,-100.00,NNW,337,2.0,6.0,55,0.00,,,0.00,0.000000,,2013-02-18 10:42:00,
2013-02-18 05:53:00,18.0,5.0,-100.00,NNW,337,2.0,6.0,55,0.00,,,0.00,0.000000,,2013-02-18 10:53:00,
2013-02-18 06:02:00,18.0,5.0,-100.00,NNW,337,2.0,6.0,55,0.00,,,0.00,0.000000,,2013-02-18 11:02:00,
2013-02-18 06:43:00,16.0,5.0,-100.00,NE,51,3.0,9.0,61,0.00,,,0.00,0.000000,,2013-02-18 11:43:00,
2013-02-18 06:53:00,16.0,5.0,-100.00,NE,51,3.0,9.0,61,0.00,,,0.00,0.000000,,2013-02-18 11:53:00,
2013-02-18 07:32:00,16.0,7.0,-100.00,NE,48,3.0,7.0,68,-99.99,,,0.00,0.000000,,2013-02-18 12:32:00,
2013-02-18 08:42:00,16.0,8.0,-100.00,ENE,70,2.0,6.0,71,-99.99,,,-99.99,15.000000,,2013-02-18 13:42:00,
2013-02-18 08:53:00,16.0,8.0,-100.00,ENE,70,2.0,6.0,71,-99.99,,,-99.99,15.000000,,2013-02-18 13:53:00,
2013-02-18 09:34:00,27.0,20.0,-100.00,NE,37,3.0,6.0,74,-99.99,,,0.00,145.000000,,2013-02-18 14:34:00,
2013-02-18 09:42:00,27.0,20.0,-100.00,NE,37,3.0,6.0,74,-99.99,,,0.00,145.000000,,2013-02-18 14:42:00,
2013-02-18 09:54:00,27.0,20.0,-100.00,NE,37,3.0,6.0,74,-99.99,,,0.00,145.000000,,2013-02-18 14:54:00,
2013-02-18 10:02:00,27.0,20.0,-100.00,NE,37,3.0,6.0,74,-99.99,,,0.00,145.000000,,2013-02-18 15:02:00,
2013-02-18 10:10:00,34.0,20.0,-100.00,NE,34,3.0,12.0,55,0.00,,,0.00,292.000000,,2013-02-18 15:10:00,
2013-02-18 10:42:00,34.0,20.0,-100.00,NE,34,3.0,12.0,55,0.00,,,0.00,292.000000,,2013-02-18 15:42:00,
2013-02-18 10:53:00,34.0,20.0,-100.00,NE,34,3.0,12.0,55,0.00,,,0.00,292.000000,,2013-02-18 15:53:00,
2013-02-18 11:03:00,34.0,20.0,-100.00,NE,34,3.0,12.0,55,0.00,,,0.00,292.000000,,2013-02-18 16:03:00,
2013-02-18 11:10:00,37.0,12.0,-100.00,South,175,9.0,16.0,35,0.00,,,0.00,349.000000,,2013-02-18 16:10:00,
2013-02-18 11:33:00,37.0,12.0,-100.00,South,175,9.0,16.0,35,0.00,,,0.00,349.000000,,2013-02-18 16:33:00,
2013-02-18 11:43:00,37.0,12.0,-100.00,South,175,9.0,16.0,35,0.00,,,0.00,349.000000,,2013-02-18 16:43:00,
2013-02-18 11:53:00,37.0,12.0,-100.00,South,175,9.0,16.0,35,0.00,,,0.00,349.000000,,2013-02-18 16:53:00,
2013-02-18 12:04:00,37.0,12.0,-100.00,South,175,9.0,16.0,35,0.00,,,0.00,349.000000,,2013-02-18 17:04:00,
2013-02-18 12:10:00,42.0,14.0,-100.00,South,186,6.0,17.0,32,0.00,,,0.00,427.000000,,2013-02-18 17:10:00,
2013-02-18 12:43:00,42.0,14.0,-100.00,South,186,6.0,17.0,32,0.00,,,0.00,427.000000,,2013-02-18 17:43:00,
2013-02-18 12:53:00,42.0,14.0,-100.00,South,186,6.0,17.0,32,0.00,,,0.00,427.000000,,2013-02-18 17:53:00,
2013-02-18 13:03:00,42.0,14.0,-100.00,South,186,6.0,17.0,32,0.00,,,0.00,427.000000,,2013-02-18 18:03:00,
2013-02-18 13:10:00,43.0,15.0,-100.00,South,184,7.0,20.0,32,0.00,,,0.00,471.000000,,2013-02-18 18:10:00,
2013-02-18 13:33:00,43.0,15.0,-100.00,South,184,7.0,20.0,32,0.00,,,0.00,471.000000,,2013-02-18 18:33:00,
2013-02-18 13:43:00,43.0,15.0,-100.00,South,184,7.0,20.0,32,0.00,,,0.00,471.000000,,2013-02-18 18:43:00,
2013-02-18 13:53:00,43.0,15.0,-100.00,South,184,7.0,20.0,32,0.00,,,0.00,471.000000,,2013-02-18 18:53:00,
2013-02-18 14:03:00,43.0,15.0,-100.00,South,184,7.0,20.0,32,0.00,,,0.00,471.000000,,2013-02-18 19:03:00,
2013-02-18 14:10:00,42.0,14.0,-100.00,South,188,10.0,23.0,31,0.00,,,0.00,447.000000,,2013-02-18 19:10:00,
2013-02-18 14:43:00,42.0,14.0,-100.00,South,188,10.0,23.0,31,0.00,,,0.00,447.000000,,2013-02-18 19:43:00,
2013-02-18 14:53:00,42.0,14.0,-100.00,South,188,10.0,23.0,31,0.00,,,0.00,447.000000,,2013-02-18 19:53:00,
2013-02-18 16:10:00,45.0,18.0,-100.00,South,173,12.0,25.0,33,-99.99,,,0.00,297.000000,,2013-02-18 21:10:00,
2013-02-18 16:43:00,45.0,18.0,-100.00,South,173,12.0,25.0,33,-99.99,,,0.00,297.000000,,2013-02-18 21:43:00,
2013-02-18 16:53:00,45.0,18.0,-100.00,South,173,12.0,25.0,33,-99.99,,,0.00,297.000000,,2013-02-18 21:53:00,
2013-02-18 17:03:00,45.0,18.0,-100.00,South,173,12.0,25.0,33,-99.99,,,0.00,297.000000,,2013-02-18 22:03:00,
2013-02-18 18:10:00,41.0,17.0,-100.00,South,172,11.0,23.0,38,-99.99,,,-99.99,51.000000,,2013-02-18 23:10:00,
2013-02-18 18:34:00,41.0,17.0,-100.00,South,172,11.0,23.0,38,-99.99,,,-99.99,51.000000,,2013-02-18 23:34:00,
2013-02-18 18:43:00,41.0,17.0,-100.00,South,172,11.0,23.0,38,-99.99,,,-99.99,51.000000,,2013-02-18 23:43:00,
2013-02-18 18:54:00,41.0,17.0,-100.00,South,172,11.0,23.0,38,-99.99,,,-99.99,51.000000,,2013-02-18 23:54:00,
2013-02-18 19:03:00,41.0,17.0,-100.00,South,172,11.0,23.0,38,-99.99,,,-99.99,51.000000,,2013-02-19 00:03:00,
2013-02-18 19:10:00,39.0,18.0,-100.00,South,169,11.0,23.0,43,0.00,,,0.00,0.000000,,2013-02-19 00:10:00,
2013-02-18 19:36:00,39.0,18.0,-100.00,South,169,11.0,23.0,43,0.00,,,0.00,0.000000,,2013-02-19 00:36:00,
2013-02-18 19:44:00,39.0,18.0,-100.00,South,169,11.0,23.0,43,0.00,,,0.00,0.000000,,2013-02-19 00:44:00,
2013-02-18 19:55:00,39.0,18.0,-100.00,South,169,11.0,23.0,43,0.00,,,0.00,0.000000,,2013-02-19 00:55:00,
2013-02-18 20:03:00,39.0,18.0,-100.00,South,169,11.0,23.0,43,0.00,,,0.00,0.000000,,2013-02-19 01:03:00,
2013-02-18 20:10:00,37.0,19.0,-100.00,South,170,10.0,23.0,48,0.00,,,-99.99,0.000000,,2013-02-19 01:10:00,
2013-02-18 20:45:00,37.0,19.0,-100.00,South,170,10.0,23.0,48,0.00,,,-99.99,0.000000,,2013-02-19 01:45:00,
2013-02-18 20:57:00,37.0,19.0,-100.00,South,170,10.0,23.0,48,0.00,,,-99.99,0.000000,,2013-02-19 01:57:00,
2013-02-18 21:04:00,37.0,19.0,-100.00,South,170,10.0,23.0,48,0.00,,,-99.99,0.000000,,2013-02-19 02:04:00,
2013-02-18 21:10:00,38.0,21.0,-100.00,South,172,11.0,29.0,49,0.00,,,0.00,0.000000,,2013-02-19 02:10:00,
2013-02-18 21:44:00,38.0,21.0,-100.00,South,172,11.0,29.0,49,0.00,,,0.00,0.000000,,2013-02-19 02:44:00,
2013-02-18 21:56:00,38.0,21.0,-100.00,South,172,11.0,29.0,49,0.00,,,0.00,0.000000,,2013-02-19 02:56:00,
2013-02-18 22:07:00,38.0,21.0,-100.00,South,172,11.0,29.0,49,0.00,,,0.00,0.000000,,2013-02-19 03:07:00,
2013-02-18 22:10:00,35.0,18.0,-100.00,South,169,12.0,28.0,50,0.00,,,0.00,0.000000,,2013-02-19 03:10:00,
2013-02-18 22:35:00,35.0,18.0,-100.00,South,169,12.0,28.0,50,0.00,,,0.00,0.000000,,2013-02-19 03:35:00,
2013-02-18 22:45:00,35.0,18.0,-100.00,South,169,12.0,28.0,50,0.00,,,0.00,0.000000,,2013-02-19 03:45:00,
2013-02-18 22:55:00,35.0,18.0,-100.00,South,169,12.0,28.0,50,0.00,,,0.00,0.000000,,2013-02-19 03:55:00,
2013-02-18 23:03:00,35.0,18.0,-100.00,South,169,12.0,28.0,50,0.00,,,0.00,0.000000,,2013-02-19 04:03:00,
2013-02-18 23:10:00,35.0,20.0,-100.00,South,170,8.0,32.0,54,0.00,,,0.00,0.000000,,2013-02-19 04:10:00,
2013-02-18 23:34:00,35.0,20.0,-100.00,South,170,8.0,32.0,54,0.00,,,0.00,0.000000,,2013-02-19 04:34:00,
2013-02-18 23:45:00,35.0,20.0,-100.00,South,170,8.0,32.0,54,0.00,,,0.00,0.000000,,2013-02-19 04:45:00,
2013-02-18 23:56:00,35.0,20.0,-100.00,South,170,8.0,32.0,54,0.00,,,0.00,0.000000,,2013-02-19 04:56:00,